Regional Weather Roundup
Issued by NWS Boston, MA

Home | Current Version | Previous Version | Text Only | Print | Product List | Glossary On
Versions: 1 2 3 4 5 6 7 8 9 10 11 12 13 14 15 16 17 18 19 20 21 22 23 24 25 26 27 28 29 30 31 32 33 34 35 36 37 38 39 40 41 42 43 44 45 46 47 48 49 50
000
ASUS41 KBOX 301810
RWRBOX

REGIONAL WEATHER ROUNDUP
NATIONAL WEATHER SERVICE TAUNTON MA
200 PM EDT SAT JUL 30 2016

NOTE:  "FAIR" INDICATES FEW OR NO CLOUDS BELOW 12,000 FEET WITH NO
SIGNIFICANT WEATHER AND/OR OBSTRUCTIONS TO VISIBILITY.

MAZALL-301900-
EASTERN MASSACHUSETTS

CITY           SKY/WX    TMP DP  RH WIND       PRES   REMARKS
BOSTON         MOSUNNY   78  58  49 E14       30.04S
6HR MIN TEMP:  75; 6HR MAX TEMP:  80;

BEVERLY        SUNNY     82  54  37 SE12      30.03S
LAWRENCE       MOSUNNY   87  51  28 VRB5      30.04F
BEDFORD        PTSUNNY   85  54  34 W5        30.01F
BLUE HILL        N/A     81  57  43 E3        30.04S
NORWOOD        PTSUNNY   85  60  42 NE6       30.01F
MARSHFIELD     SUNNY     77  59  53 E7        30.04F
PLYMOUTH       SUNNY     82  57  42 E6        30.05F
TAUNTON        MOSUNNY   86  61  42 VRB5      30.02F
NEW BEDFORD    PTSUNNY   82  65  56 S10       30.03S
$$

MAZALL-301900-
CAPE COD AND THE ISLANDS

CITY           SKY/WX    TMP DP  RH WIND       PRES   REMARKS
FALMOUTH       SUNNY     79  66  65 MISG        N/A
HYANNIS        CLOUDY    75  69  81 S8        30.04R
CHATHAM        SUNNY     75  66  73 E7        30.05S
PROVINCETOWN   SUNNY     76  65  68 N8        30.05S
NANTUCKET      PTSUNNY   71  68  90 S10       30.05S
MARTHAS VNYRD  MOSUNNY   78  70  76 S5        30.04F
$$

MAZALL-301900-
CENTRAL AND WESTERN MASSACHUSETTS

CITY           SKY/WX    TMP DP  RH WIND       PRES   REMARKS
WORCESTER      CLOUDY    80  56  43 SW5       30.07F
6HR MIN TEMP:  70; 6HR MAX TEMP:  80;

FITCHBURG      PTSUNNY   85  55  35 VRB5      30.04F
ORANGE         CLOUDY    83  56  39 NW8       30.05S
SPRINGFIELD    CLOUDY    83  60  45 VRB6      30.01F
WESTFIELD      NOT AVBL
NORTH ADAMS    CLOUDY    79  53  40 CALM      30.05F
PITTSFIELD     CLOUDY    76  61  59 NW5       30.07S
$$

RIZALL-301900-
RHODE ISLAND

CITY           SKY/WX    TMP DP  RH WIND       PRES   REMARKS
PROVIDENCE     PTSUNNY   84  63  49 S10       30.03F
6HR MIN TEMP:  74; 6HR MAX TEMP:  85;

NEWPORT        PTSUNNY   79  68  69 SE9       30.04F
BLOCK ISLAND   MOSUNNY   78  70  76 SE9       30.05F
SMITHFIELD     PTSUNNY   84  59  42 CALM      30.04S
WESTERLY       MOSUNNY   79  65  62 SE12      30.05S
$$

CTZALL-301900-
CONNECTICUT

CITY           SKY/WX    TMP DP  RH WIND       PRES   REMARKS
BRADLEY INTL   PTSUNNY   88  61  40 S7        30.02F
6HR MIN TEMP:  72; 6HR MAX TEMP:  88;

HARTFORD       PTSUNNY   88  65  46 VRB3      30.00F HX  90
BRIDGEPORT     SUNNY     82  70  66 E12       30.02S
DANBURY        MOSUNNY   83  69  62 E7        30.03F
GROTON         PTSUNNY   80  68  66 SE13      30.03S
NEW HAVEN      MOSUNNY   82  68  62 SE10      30.03S
CHESTER        FAIR      82  68  61 SE9G15    30.04F
MERIDEN        PTSUNNY   85  66  53 S8        30.01F
WILLIMANTIC    MOSUNNY   86  64  47 VRB3      30.03S
OXFORD         PTSUNNY   82  64  54 SW9       30.07F
$$

MEZ002-015-021-024-NHZ003-005-008-011-012-014-VTZ005-008-301900-
NORTHERN NEW ENGLAND

CITY           SKY/WX    TMP DP  RH WIND       PRES   REMARKS
PORTLAND ME    CLOUDY    82  50  32 VRB7      30.03S
6HR MIN TEMP:  72; 6HR MAX TEMP:  83;

BANGOR ME      PTSUNNY   84  56  38 N7        30.00S
CONCORD NH     PTSUNNY   83  51  33 NW8       30.04S
MANCHESTER NH  PTSUNNY   83  50  31 N10       30.03S
NASHUA NH      MOSUNNY   84  54  35 NE5G16    30.03F
PORTSMOUTH NH  MOSUNNY   79  60  52 S5        30.02S
JAFFREY NH     MOSUNNY   79  52  38 N5        30.08S
KEENE NH       CLOUDY    79  54  41 W5        30.06S
BURLINGTON VT  NOT AVBL
MT. WASHINGTON PTSUNNY   54  46  76 VRB5        N/A
$$

NYZ052-076-301900-
EASTERN NEW YORK

CITY           SKY/WX    TMP DP  RH WIND       PRES   REMARKS
ALBANY         PTSUNNY   77  60  55 NW6       30.05F
6HR MIN TEMP:  67; 6HR MAX TEMP:  78; 6HR PCP: TRACE;

NEW YORK CITY  PTSUNNY   79  70  74 NE10      30.00F
6HR MIN TEMP:  76; 6HR MAX TEMP:  81;

$$

ANZALL-301900-
MARINE OBSERVATIONS

STATION/POSITION TIME  TEMP    WIND        PRES    VSBY  WAVE
                       AIR SEA DIR/SP/G                  HT/PER
                 (UTC) (F)     (DEG/KT/KT) (MB)    (MI)  (FT/S)
BOSTON BUOY      1750   71 71  100/  8/  8 1017.4R         1/ 8
BUZZARDS BAY     1700   73     180/  6/  6 1017.9R
NANTUCKET SOUND  1750   69 75  110/  4/  6 1017.2F         1/ 5
MASS BAY-STELLWA 1704   71 71   70/  8/  8 1017.1S  1 7/8  1/ 3
ISLE OF SHOALS   1700   72      90/  9/  9 1016.7F
S OF BLOCK IS    1725      74                N/A           2/ 7
$$

......................KEY.........................
  SKY/WX - SKY CONDITION/PRESENT WEATHER
  TMP    - TEMPERATURE IN FAHRENHEIT
  DWPT   - DEWPOINT IN FAHRENHEIT
  RH     - RELATIVE HUMIDITY IN PERCENT
  WIND   - DIRECTION AND SPEED IN MPH
  PRES   - MEAN SEA LEVEL PRESSURE IN INCHES OF HG
  WCI    - WIND CHILL INDEX
  VSB    - VISIBILITY IN MILES
  HX     - HEAT INDEX
  TC     - TEMPERATURE IN CELSIUS
  VRB    - VARIABLE WIND DIRECTION
  N/A    - NOT AVAILABLE



USA.gov is the U.S. government's official web portal to all federal, state and local government web resources and services.